Probability
0 0 0 0 0 0 0 0 0 0 0 0 0 0 0 3 0 0 0 0 0 0 0 0 0 0 0 0 0 0 0 0 0 0 0 0 0 0 0 0 0 0 0
0 0 0 0 0 0 0 0 0 0 0 0 0 0 0 0 0 0 0 0 0 0 0 0 0 0 0 0 0 0 0 0 0 0 0 0 0 0 0 0 0 0 0
0 0 0 0 0 0 0 0 0 0 0 0 0 0 0 0 0 0 0 0 0 0 0 0 0 0 0 0 0 0 0 0 0 0 0 0 0 0 0 0 0 0 0
0 0 0 0 0 0 0 0 0 0 0 0 0 0 0 0 0 0 0 0 0 0 0 0 0 0 0 0 0 0 0 0 0 0 0 0 0 0 0 0 0 0 0
0 0 0 0 0 0 0 0 0 0 0 0 0 0 0 0 0 0 0 0 0 0 0 0 0 0 0 0 0 0 0 0 0 0 0 0 0 0 0 0 0 0 0
0 0 0 0 0 0 0 0 0 0 0 0 0 0 0 0 0 0 0 0 0 0 0 0 0 0 0 0 0 0 0 0 0 0 0 0 0 0 0 0 0 0 0
0 0 0 0 0 0 0 0 0 0 0 0 0 0 0 0 0 0 0 0 0 0 0 0 0 0 0 0 0 0 0 0 0 0 0 0 0 0 0 0 0 0 0
0 0 0 0 0 0 0 0 0 0 0 0 0 0 0 0 0 0 0 0 0 0 0 0 0 0 0 0 0 0 0 0 0 0 0 0 0 0 0 0 0 0 0
0 0 0 0 0 0 0 0 0 0 0 0 0 0 0 0 0 0 0 0 0 0 0 0 0 0 0 0 0 0 0 0 0 0 0 0 0 0 0 0 0 0 0
0 0 0 0 0 0 0 0 0 0 0 0 0 0 0 0 0 0 0 0 0 0 0 0 0 0 0 0 0 0 0 0 0 0 0 0 0 0 0 0 0 0 0
0 0 0 0 0 0 0 0 0 0 0 0 0 0 0 0 0 0 0 0 0 0 0 0 0 0 0 0 0 0 0 0 0 0 0 0 0 0 0 0 0 0 0
0 0 0 0 0 0 0 0 0 0 0 0 0 0 0 0 0 0 0 0 0 0 0 0 0 0 0 0 0 0 0 0 0 0 0 0 0 0 0 0 0 0 0
0 0 0 0 0 0 0 0 0 0 0 0 0 0 0 0 0 0 0 0 0 0 0 0 0 0 0 0 0 0 0 0 0 0 0 0 0 0 0 0 0 0 0
0 0 0 0 0 0 0 0 0 0 0 0 0 0 0 0 0 0 0 0 0 0 0 0 0 0 0 0 0 0 0 0 0 0 0 0 0 0 0 0 0 0 0
0 0 0 0 0 0 0 0 0 0 0 0 0 0 0 0 0 0 0 0 0 0 0 0 0 0 0 0 0 0 0 0 0 0 0 0 0 0 0 0 0 0 0
0 0 0 0 0 0 0 0 0 0 0 0 0 0 0 0 0 0 0 0 0 0 0 0 0 0 0 0 0 0 0 0 0 0 0 0 0 0 0 0 0 0 0
0 0 0 0 0 0 0 0 0 0 0 0 0 0 0 0 0 0 0 0 0 0 0 0 0 0 0 0 0 0 0 0 0 0 0 0 0 0 0 0 0 0 0
0 0 0 0 0 0 0 0 0 0 0 0 0 0 0 0 0 0 0 0 0 0 0 0 0 0 0 0 0 0 0 0 0 0 0 0 0 0 0 0 0 0 0
0 0 0 0 0 0 0 0 0 0 0 0 0 0 0 0 0 0 0 0 0 0 0 0 0 0 0 0 0 0 0 0 0 0 0 0 0 0 0 0 0 0 0
0 0 0 0 0 0 0 0 0 0 0 0 0 0 0 0 0 0 0 0 0 0 0 0 0 0 0 0 0 0 0 0 0 0 0 0 0 0 0 0 0 0 0
0 0 0 0 0 0 0 0 0 0 0 0 0 0 0 0 0 0 0 0 0 0 0 0 0 0 0 0 0 0 0 0 0 0 0 0 0 0 0 0 0 0 0
0 0 0 0 0 0 0 0 0 0 0 0 0 0 0 0 0 0 0 0 0 0 0 0 0 0 0 0 0 0 0 0 0 0 0 0 0 0 0 0 0 0 0
0 0 0 0 0 0 0 0 0 0 0 0 0 0 0 0 0 0 0 0 0 0 0 0 0 0 0 0 0 0 0 0 0 0 0 0 0 0 0 0 0 0 0
0 0 0 0 0 0 0 0 0 0 0 0 0 0 0 0 0 0 0 0 0 0 0 0 0 0 0 0 0 0 0 0 0 0 0 0 0 0 0 0 0 0 0
0 0 0 0 0 0 0 0 0 0 0 0 0 0 0 0 0 0 0 0 0 0 0 0 0 0 0 0 0 0 0 0 0 0 0 0 0 0 0 0 0 0 0
0 0 0 0 0 0 0 0 0 0 0 0 0 0 0 0 0 0 0 0 0 0 0 0 0 0 0 0 0 0 0 0 0 0 0 0 0 0 0 0 0 0 0
Height
5727 5726 5725 5724 5724 5723 5723 5723 5722 5722 5722 5722 5722 5722 5723 5724 5725 5726 5727 5728 5730 5730 5731 5733 5733 5734 5735 5736 5737 5738 5739 5740 5741 5743 5744 5746 5747 5748 5750 5751 5753 5755 5756
5717 5715 5714 5713 5713 5712 5711 5711 5710 5709 5709 5709 5708 5709 5710 5710 5711 5712 5712 5713 5715 5716 5717 5718 5719 5720 5721 5722 5723 5724 5726 5727 5728 5729 5731 5733 5735 5736 5738 5739 5741 5742 5744
5706 5705 5703 5702 5701 5700 5699 5698 5697 5696 5695 5695 5694 5694 5695 5695 5696 5696 5697 5698 5699 5700 5701 5703 5704 5705 5706 5707 5708 5709 5711 5712 5713 5714 5716 5718 5721 5723 5726 5727 5728 5730 5732
5695 5693 5691 5690 5689 5688 5686 5685 5684 5683 5682 5681 5680 5679 5679 5680 5680 5680 5681 5682 5682 5683 5684 5686 5687 5689 5690 5692 5693 5694 5695 5697 5698 5699 5700 5702 5704 5707 5711 5714 5715 5716 5718
5684 5681 5679 5678 5676 5675 5674 5672 5671 5670 5668 5666 5665 5664 5663 5664 5664 5664 5665 5666 5666 5667 5667 5669 5670 5672 5674 5675 5676 5678 5679 5680 5682 5683 5685 5686 5688 5690 5693 5698 5701 5703 5705
5673 5670 5668 5665 5664 5662 5661 5659 5657 5656 5654 5652 5650 5649 5648 5648 5648 5648 5648 5649 5649 5649 5650 5651 5653 5654 5656 5658 5659 5661 5662 5664 5665 5667 5668 5670 5672 5674 5677 5680 5685 5687 5690
5662 5659 5656 5654 5651 5649 5647 5646 5644 5642 5640 5638 5636 5634 5633 5632 5632 5632 5631 5632 5632 5632 5633 5634 5635 5637 5639 5640 5642 5643 5645 5646 5648 5649 5651 5653 5655 5658 5660 5663 5667 5671 5675
5651 5648 5645 5642 5639 5637 5634 5632 5630 5628 5625 5623 5621 5619 5617 5616 5616 5615 5614 5614 5614 5615 5615 5616 5617 5619 5620 5622 5624 5626 5628 5629 5631 5632 5634 5636 5638 5640 5643 5646 5649 5653 5659
5641 5637 5634 5631 5627 5624 5621 5619 5616 5614 5611 5608 5606 5604 5602 5600 5599 5598 5597 5597 5597 5597 5598 5599 5600 5601 5602 5603 5605 5608 5610 5611 5613 5615 5617 5619 5622 5624 5626 5629 5632 5636 5640
5630 5626 5622 5619 5615 5612 5609 5605 5602 5599 5596 5594 5591 5589 5586 5584 5583 5582 5581 5580 5580 5580 5580 5581 5582 5583 5584 5586 5587 5589 5591 5594 5596 5598 5600 5603 5605 5607 5609 5612 5615 5618 5622
5619 5615 5611 5607 5604 5600 5596 5592 5589 5586 5582 5579 5576 5574 5571 5569 5567 5565 5564 5563 5563 5562 5563 5563 5565 5565 5567 5568 5569 5571 5573 5576 5579 5581 5583 5586 5588 5590 5593 5595 5598 5601 5605
5609 5604 5600 5596 5592 5587 5583 5579 5576 5572 5569 5566 5562 5559 5556 5554 5551 5549 5548 5547 5546 5546 5546 5546 5547 5548 5549 5550 5552 5554 5556 5558 5561 5564 5566 5568 5570 5573 5575 5578 5581 5584 5588
5598 5594 5589 5585 5580 5575 5571 5567 5563 5559 5556 5552 5548 5545 5542 5539 5536 5534 5531 5530 5530 5530 5530 5530 5530 5531 5532 5533 5534 5536 5538 5541 5544 5546 5549 5551 5553 5556 5558 5561 5564 5567 5571
5587 5583 5578 5573 5568 5563 5559 5554 5550 5546 5542 5539 5535 5531 5527 5524 5521 5518 5516 5515 5514 5514 5514 5514 5514 5514 5515 5516 5517 5519 5521 5523 5526 5529 5531 5534 5536 5539 5541 5544 5547 5550 5554
5576 5571 5566 5562 5557 5552 5547 5542 5538 5534 5530 5525 5521 5517 5514 5510 5507 5505 5502 5501 5500 5499 5499 5498 5498 5498 5499 5500 5500 5502 5504 5507 5510 5512 5515 5517 5519 5522 5524 5527 5530 5533 5537
5565 5560 5555 5550 5545 5540 5536 5531 5526 5522 5517 5513 5509 5504 5501 5497 5493 5491 5489 5487 5485 5485 5485 5484 5484 5484 5484 5484 5485 5486 5488 5491 5494 5496 5499 5501 5503 5505 5508 5510 5513 5517 5520
5554 5549 5544 5539 5534 5529 5524 5519 5514 5510 5505 5501 5496 5492 5488 5484 5480 5478 5475 5473 5472 5471 5471 5471 5470 5471 5470 5471 5471 5472 5474 5476 5479 5481 5483 5485 5487 5489 5491 5494 5497 5501 5504
5542 5538 5533 5528 5523 5518 5513 5508 5503 5499 5494 5489 5484 5479 5475 5471 5468 5465 5462 5460 5459 5458 5458 5457 5457 5457 5458 5458 5459 5460 5461 5463 5464 5466 5467 5469 5472 5474 5476 5479 5482 5485 5489
5531 5526 5521 5517 5512 5507 5502 5497 5492 5487 5482 5477 5472 5467 5463 5459 5455 5452 5450 5448 5446 5445 5445 5444 5444 5445 5445 5445 5446 5446 5448 5450 5451 5452 5453 5455 5457 5460 5462 5464 5468 5471 5474
5520 5515 5510 5505 5500 5495 5490 5486 5481 5476 5471 5465 5460 5455 5451 5447 5443 5440 5437 5435 5434 5433 5432 5432 5432 5432 5432 5433 5433 5433 5435 5437 5438 5439 5440 5441 5443 5445 5447 5450 5453 5457 5460
5509 5504 5499 5494 5489 5484 5479 5474 5470 5465 5459 5454 5449 5444 5439 5435 5431 5428 5425 5423 5422 5421 5421 5421 5420 5420 5420 5420 5420 5420 5421 5422 5424 5425 5427 5428 5430 5432 5434 5437 5440 5443 5446
5498 5493 5488 5483 5478 5473 5468 5464 5459 5454 5448 5443 5438 5433 5428 5424 5420 5416 5414 5411 5409 5409 5409 5408 5409 5408 5407 5407 5407 5408 5408 5409 5411 5413 5414 5416 5418 5420 5422 5425 5428 5430 5433
5487 5482 5477 5472 5466 5461 5457 5452 5448 5443 5437 5432 5427 5422 5417 5413 5408 5405 5402 5400 5398 5397 5397 5397 5397 5397 5396 5395 5396 5396 5397 5397 5399 5401 5403 5404 5406 5408 5411 5413 5416 5418 5421
5476 5471 5466 5461 5456 5451 5446 5441 5437 5432 5426 5421 5416 5412 5407 5403 5399 5395 5391 5389 5387 5386 5386 5386 5386 5386 5385 5384 5384 5385 5386 5387 5388 5390 5391 5393 5395 5397 5400 5402 5405 5407 5410
5465 5460 5454 5450 5445 5440 5435 5430 5425 5420 5415 5411 5406 5401 5397 5392 5389 5385 5381 5378 5377 5375 5375 5375 5375 5375 5375 5374 5374 5374 5376 5377 5378 5379 5381 5383 5384 5387 5389 5392 5394 5397 5400
5454 5449 5443 5438 5433 5428 5423 5418 5414 5409 5404 5400 5395 5391 5386 5382 5378 5375 5372 5369 5367 5365 5364 5364 5364 5364 5364 5364 5364 5365 5365 5366 5368 5369 5371 5373 5375 5377 5379 5382 5385 5387 5390
Wind_Speed
36 36 38 39 40 40 41 42 43 44 45 46 47 49 50 50 50 51 51 51 51 51 51 51 51 50 50 50 49 49 48 48 48 48 47 47 46 45 45 45 44 44 44
37 38 39 40 41 42 43 44 44 45 46 47 48 50 51 52 53 53 54 53 54 54 54 53 53 53 53 53 53 52 51 51 51 51 51 50 49 48 47 47 47 46 46
38 39 40 41 42 43 44 44 45 46 48 49 49 50 52 53 54 55 55 55 56 57 57 57 57 57 56 56 56 55 55 54 54 54 54 53 52 51 50 49 49 49 49
38 39 41 41 42 43 43 44 45 46 47 49 50 51 52 54 55 55 55 56 57 58 59 59 59 59 58 57 57 57 57 56 56 56 56 56 56 54 53 52 51 51 51
38 39 40 41 42 43 43 44 45 45 46 48 50 51 53 54 55 56 56 56 57 58 59 60 60 60 59 58 58 58 58 58 57 57 57 57 57 57 56 54 53 53 53
38 38 39 41 42 43 44 44 45 46 47 48 49 51 52 54 56 57 58 58 58 58 59 60 60 60 60 60 59 59 59 59 59 58 58 58 57 57 57 57 55 54 54
38 38 39 40 41 42 43 44 45 46 47 48 49 50 52 53 55 56 57 58 59 58 59 60 61 61 61 61 61 61 60 60 59 59 59 59 59 59 59 59 58 56 55
37 38 39 40 41 42 43 44 46 46 47 48 49 50 51 53 54 56 57 58 59 59 60 60 60 60 61 61 61 61 61 60 60 60 59 58 58 59 59 59 59 58 56
38 38 39 40 41 42 43 44 46 47 48 48 49 50 51 52 54 55 56 57 58 58 60 60 59 58 60 61 61 61 61 61 60 60 60 59 58 59 59 59 59 59 57
38 39 40 41 42 42 43 45 46 47 48 48 50 51 52 53 54 55 55 56 57 58 58 58 58 58 59 60 61 61 60 60 60 60 60 60 59 59 59 60 60 60 59
39 40 41 42 42 43 44 45 45 46 48 49 49 50 51 52 53 54 54 55 56 57 57 57 58 58 58 58 59 59 58 58 59 59 60 61 60 59 59 60 60 60 60
40 41 41 42 43 44 45 45 46 47 47 48 48 48 49 50 51 52 53 53 54 55 56 56 57 57 56 56 58 58 58 57 57 58 58 59 60 60 59 59 60 60 61
41 41 42 43 45 46 46 46 46 47 47 47 47 48 49 49 50 51 52 52 53 54 55 55 55 55 56 56 57 57 58 58 56 56 57 58 58 59 60 59 60 60 60
42 43 43 44 45 46 46 45 45 46 46 46 46 47 48 49 49 50 50 51 51 52 52 52 53 54 54 55 55 56 56 56 56 55 56 57 57 58 59 59 60 60 59
43 43 44 44 44 44 44 44 45 45 45 45 46 46 47 48 48 49 49 50 50 49 49 49 50 51 51 52 53 54 54 55 55 54 54 56 56 57 58 58 58 59 59
43 43 43 43 43 43 43 44 44 44 44 45 45 46 47 47 47 47 47 48 48 48 48 48 48 48 48 49 50 51 52 53 53 52 53 54 53 54 56 57 57 57 57
43 43 43 43 43 43 43 43 43 43 44 44 45 46 46 46 46 45 45 46 46 47 47 47 47 46 46 46 47 48 49 50 50 50 50 51 51 51 52 54 54 55 55
42 42 42 42 43 43 43 43 43 43 44 44 44 45 45 45 44 44 44 44 45 45 45 45 45 45 44 44 45 46 46 47 48 49 51 50 50 50 50 50 51 52 53
41 42 43 43 43 43 43 42 42 43 43 43 43 43 43 43 43 43 43 43 43 43 43 42 43 43 43 44 44 45 44 44 46 47 48 49 48 48 49 49 48 49 50
42 42 43 43 43 43 43 43 42 43 43 43 43 43 42 42 41 42 42 42 42 41 41 40 40 42 43 43 44 44 44 44 44 45 46 47 47 47 47 47 47 46 47
42 42 42 43 43 43 43 43 43 43 42 43 43 42 41 40 40 40 40 40 40 40 40 39 39 40 41 42 42 42 42 43 43 43 44 45 45 45 45 45 45 45 45
42 42 42 42 42 42 42 43 43 43 42 42 42 41 40 40 39 38 38 38 38 38 38 38 38 39 40 41 42 42 42 41 41 40 41 42 43 43 42 42 42 43 44
42 42 42 42 42 42 42 42 42 42 42 42 41 40 39 39 38 38 38 37 37 37 37 37 37 37 38 39 39 39 40 40 39 38 39 40 40 40 40 39 40 41 42
43 43 42 42 42 43 43 43 43 42 42 41 40 39 39 38 38 37 36 36 35 35 36 36 35 35 35 36 37 38 38 37 37 37 38 39 39 39 38 39 38 38 39
43 43 43 42 42 42 43 43 43 42 41 41 39 39 38 37 36 35 35 34 34 34 34 34 34 33 32 33 34 35 35 35 35 35 35 36 37 37 37 38 38 38 38
43 44 43 42 42 42 42 42 42 41 41 40 39 38 37 36 35 34 32 32 32 32 32 31 31 30 30 30 30 31 32 32 32 33 34 35 36 36 36 37 38 39 38
Wind_Direction
271 271 270 269 269 269 270 269 268 268 267 266 265 264 262 262 262 261 262 262 262 262 263 263 263 263 264 265 264 262 262 262 261 260 260 260 259 259 258 258 257 256 255
272 271 271 271 270 270 270 270 269 269 268 268 266 265 263 263 262 262 262 262 262 262 262 263 264 265 265 265 264 264 264 263 262 261 260 259 258 258 258 257 256 256 255
274 272 272 272 271 271 271 270 270 270 270 269 268 266 265 264 263 262 262 262 262 262 263 263 265 265 265 265 264 264 264 263 263 262 261 260 258 258 257 257 256 255 255
276 274 273 273 272 272 272 271 271 271 272 271 270 268 266 265 265 264 263 263 263 263 263 264 264 265 265 264 264 264 263 263 263 262 262 261 260 257 256 255 255 255 255
280 278 276 275 274 273 273 273 272 273 273 273 272 270 268 267 266 265 264 264 264 264 264 264 263 264 264 264 263 263 263 263 262 262 261 261 260 259 257 255 254 255 255
282 280 279 277 276 275 274 274 274 275 275 275 274 272 270 268 267 266 265 264 264 264 263 263 262 262 262 262 262 262 262 262 262 261 261 259 258 258 257 255 254 253 254
284 283 282 281 279 277 277 277 277 277 277 275 275 274 272 270 269 268 266 265 264 263 263 263 262 262 261 261 261 261 261 261 261 260 259 258 258 257 256 256 254 252 252
286 286 285 284 283 282 280 279 279 280 279 276 276 276 274 272 270 269 267 265 264 263 263 263 262 262 261 261 261 260 260 260 260 259 259 258 257 256 256 256 255 253 252
288 288 288 287 286 285 284 283 283 282 281 279 276 276 274 273 271 270 268 266 264 263 262 263 262 262 261 260 260 259 259 259 259 259 259 258 257 256 255 255 254 254 252
291 290 290 289 289 288 287 286 285 284 282 280 278 277 275 274 272 271 270 268 265 264 263 263 262 262 262 261 260 260 259 259 259 259 258 259 258 257 256 255 254 254 254
293 291 291 292 291 291 289 288 286 285 284 283 281 279 277 275 274 272 270 269 266 265 265 263 262 262 262 261 260 259 259 259 258 258 258 258 257 257 256 255 255 254 254
295 294 294 293 293 293 291 288 287 287 287 285 283 281 279 278 276 273 271 269 268 266 265 264 262 262 262 262 260 259 258 258 258 258 258 257 257 256 256 255 255 254 254
296 296 295 295 294 294 292 291 289 289 288 287 285 283 280 279 277 275 272 270 269 267 266 265 264 263 263 262 261 259 258 257 257 256 256 256 256 256 255 255 254 253 253
296 296 296 296 296 295 294 292 291 290 290 288 287 285 283 280 278 276 274 271 269 268 266 266 265 264 264 263 262 259 258 258 256 255 255 256 255 255 255 254 254 253 253
297 297 297 297 297 296 296 294 293 292 291 290 288 286 286 283 280 277 276 273 270 269 267 266 266 265 264 263 262 260 258 257 257 255 256 256 255 254 254 255 254 253 253
297 298 298 298 298 298 297 296 295 294 293 290 289 287 286 285 282 279 278 275 271 269 267 266 265 264 264 263 262 261 259 257 257 256 255 255 255 253 254 254 253 252 252
297 297 298 298 298 298 298 297 296 296 295 293 291 289 287 287 284 281 279 276 272 269 267 266 265 264 263 263 262 261 260 259 258 257 255 255 255 254 253 253 252 252 252
296 297 298 299 299 299 298 298 297 297 296 295 293 292 289 288 286 282 280 277 273 270 268 267 266 264 263 262 262 261 260 260 260 258 256 256 256 254 253 254 253 253 252
297 297 298 299 300 299 299 299 298 298 297 296 295 294 291 289 287 284 281 279 275 271 269 268 266 264 263 263 263 261 260 260 260 259 258 257 255 254 254 254 253 253 252
298 298 298 299 299 299 299 299 300 299 298 297 296 295 293 290 289 286 282 279 276 272 269 268 267 265 263 263 264 263 261 260 260 258 257 256 255 254 253 254 253 253 251
299 298 298 299 299 299 299 299 299 300 299 298 296 295 294 292 291 289 284 280 276 273 269 268 268 267 265 264 264 264 263 262 259 257 256 255 254 254 253 254 253 252 251
300 299 299 299 299 299 299 299 299 300 300 299 297 295 294 293 292 290 286 281 276 272 269 268 268 268 267 265 264 264 263 262 260 258 256 254 254 254 253 252 252 251 250
301 300 300 300 300 299 299 300 300 300 300 300 298 296 295 294 293 291 287 282 278 273 270 269 269 269 267 265 263 262 262 261 260 257 255 254 254 253 252 251 251 250 250
302 301 300 300 299 299 299 299 300 300 300 300 299 297 295 294 293 291 289 284 279 274 271 269 269 269 267 264 261 261 261 260 257 255 254 253 253 252 251 250 250 250 249
302 302 300 299 299 298 298 299 300 301 300 300 299 297 296 295 294 291 289 285 280 276 273 271 270 268 266 263 261 260 259 258 255 254 252 250 250 250 249 248 249 249 248
303 302 301 300 299 298 299 299 300 300 300 299 298 297 296 294 293 290 287 285 281 276 273 271 270 268 266 262 260 258 257 257 256 254 252 250 249 248 247 246 248 247 247